Date String (YYYY-MM-DD hh:mm:ss) UTC,Instrument flags,Ambient pressure (hPa),Sample flow (lpm),Bypass flow (lpm),Sample temperature (°C),Ambient temperature (°C),ASC tube jacket temperature (°C),LED temperature (°C),Box temperature (°C),Sample RH (%),Span deviation,Mass concentration (μg/m³),Mass concentration (μg/m³),Mass concentration (μg/m³)
DateTimeUTC,F1_M11,P_M11,Q1_M11,Q2_M11,T1_M11,T2_M11,T3_M11,T4_M11,T5_M11,U1_M11,ZSPAN_M11,X0_M11,X2_M11,X1_M11
2022-09-01 17:00:00,,0829.2,5.00,0.00,29.8,27.0,00.0,38.4,31.5,23.4,0000.0,0015.62,0006.49,0005.24
2022-09-01 17:01:00,,0829.1,5.00,0.00,29.7,27.3,00.0,38.4,31.5,23.4,0000.0,0014.89,0006.50,0005.24
2022-09-01 17:02:00,,0829.1,5.00,0.00,29.7,27.6,00.0,38.4,31.5,23.3,0000.0,0015.29,0006.50,0005.24
2022-09-01 17:03:00,,0829.1,5.00,0.00,29.7,27.9,00.0,38.4,31.5,23.5,0000.0,0014.78,0006.46,0005.25
2022-09-01 17:04:00,,0829.1,5.01,0.00,29.7,28.1,00.0,38.4,31.6,23.6,0000.0,0014.60,0006.42,0005.27
2022-09-01 17:05:00,,0829.1,5.01,0.00,29.8,28.3,00.0,38.4,31.6,23.7,0000.0,0014.74,0006.44,0005.29
2022-09-01 17:06:00,,0829.1,5.00,0.00,29.8,28.5,00.0,38.4,31.7,24.1,0000.0,0014.22,0006.47,0005.30
2022-09-01 17:07:00,,0829.1,4.99,0.00,29.8,28.7,00.0,38.5,31.7,23.8,0000.0,0014.18,0006.52,0005.29
2022-09-01 17:08:00,,0829.0,5.00,0.00,29.9,28.5,00.0,38.5,31.7,23.5,0000.0,0013.88,0006.49,0005.28
2022-09-01 17:09:00,,0828.9,5.00,0.00,29.8,27.3,00.0,38.5,31.6,24.0,0000.0,0014.47,0006.39,0005.28
2022-09-01 17:10:00,,0828.9,4.99,0.00,29.8,26.8,00.0,38.4,31.5,25.0,0000.0,0014.99,0006.33,0005.27
2022-09-01 17:11:00,,0828.8,5.00,0.00,29.8,27.0,00.0,38.4,31.5,25.8,0000.0,0014.87,0006.28,0005.26
2022-09-01 17:12:00,,0828.8,5.00,0.00,29.7,27.2,00.0,38.4,31.4,25.1,0000.0,0015.74,0006.31,0005.27
2022-09-01 17:13:00,,0828.9,5.01,0.00,29.7,27.6,00.0,38.4,31.5,23.4,0000.0,0015.88,0006.32,0005.28
2022-09-01 17:14:00,,0828.8,4.99,0.00,29.7,27.8,00.0,38.4,31.5,24.1,0000.0,0016.47,0006.36,0005.28
2022-09-01 17:15:00,,0828.9,5.02,0.00,29.7,28.1,00.0,38.4,31.5,24.3,0000.0,0016.80,0006.42,0005.29
2022-09-01 17:16:00,,0829.1,5.00,0.00,29.7,28.3,00.0,38.4,31.6,23.2,0000.0,0016.18,0006.45,0005.30
2022-09-01 17:17:00,,0829.3,5.00,0.00,29.8,28.5,00.0,38.4,31.7,22.3,0000.0,0016.14,0006.38,0005.27
2022-09-01 17:18:00,,0829.3,5.00,0.00,29.8,28.6,00.0,38.4,31.7,21.9,0000.0,0016.90,0006.29,0005.24
2022-09-01 17:19:00,,0829.3,4.99,0.00,29.8,28.1,00.0,38.4,31.7,21.9,0000.0,0016.67,0006.29,0005.21
2022-09-01 17:20:00,,0828.9,4.99,0.00,29.8,26.9,00.0,38.4,31.6,21.7,0000.0,0015.81,0006.40,0005.20
2022-09-01 17:21:00,,0828.7,5.01,0.00,29.7,26.7,00.0,38.4,31.5,21.5,0000.0,0016.07,0006.44,0005.18
2022-09-01 17:22:00,,0828.7,5.00,0.00,29.7,27.0,00.0,38.4,31.4,21.2,0000.0,0017.71,0006.45,0005.15
2022-09-01 17:23:00,,0828.7,4.99,0.00,29.6,27.3,00.0,38.3,31.4,22.0,0000.0,0017.03,0006.37,0005.11
2022-09-01 17:24:00,,0828.7,5.01,0.00,29.6,27.6,00.0,38.3,31.4,22.6,0000.0,0017.79,0006.30,0005.07
2022-09-01 17:25:00,,0828.8,4.99,0.00,29.7,27.9,00.0,38.3,31.5,22.7,0000.0,0018.85,0006.26,0005.03
2022-09-01 17:26:00,,0828.7,5.01,0.00,29.7,28.1,00.0,38.3,31.5,22.4,0000.0,0019.31,0006.19,0004.97
2022-09-01 17:27:00,,0829.1,4.99,0.00,29.7,28.3,00.0,38.4,31.6,23.2,0000.0,0019.62,0006.20,0004.94
2022-09-01 17:28:00,,0828.9,5.00,0.00,29.7,28.5,00.0,38.4,31.6,22.7,0000.0,0019.81,0006.19,0004.92
2022-09-01 17:29:00,,0829.2,5.00,0.00,29.8,28.5,00.0,38.4,31.7,21.9,0000.0,0019.88,0006.26,0004.92
2022-09-01 17:30:00,,0829.1,5.01,0.00,29.8,27.7,00.0,38.4,31.6,21.9,0000.0,0020.20,0006.26,0004.92
2022-09-01 17:31:00,,0828.8,4.99,0.00,29.7,26.8,00.0,38.4,31.5,21.9,0000.0,0020.56,0006.19,0004.92
2022-09-01 17:32:00,,0828.6,5.00,0.00,29.7,26.9,00.0,38.3,31.5,21.4,0000.0,0020.88,0006.17,0004.91
2022-09-01 17:33:00,,0829.1,5.00,0.00,29.7,27.1,00.0,38.3,31.4,21.4,0000.0,0019.45,0006.13,0004.90
2022-09-01 17:34:00,,0828.7,5.01,0.00,29.6,27.4,00.0,38.3,31.3,21.7,0000.0,0020.69,0006.16,0004.90
2022-09-01 17:35:00,,0828.9,5.00,0.00,29.6,27.7,00.0,38.3,31.4,21.4,0000.0,0021.16,0006.20,0004.91
2022-09-01 17:36:00,,0829.1,5.00,0.00,29.6,28.0,00.0,38.3,31.5,20.8,0000.0,0019.48,0006.19,0004.91
2022-09-01 17:37:00,,0828.9,5.00,0.00,29.7,28.2,00.0,38.3,31.5,21.6,0000.0,0019.19,0006.17,0004.92
2022-09-01 17:38:00,,0828.9,5.01,0.00,29.7,28.4,00.0,38.3,31.6,21.6,0000.0,0019.20,0006.10,0004.92
2022-09-01 17:39:00,,0829.0,4.98,0.00,29.7,28.5,00.0,38.4,31.7,21.4,0000.0,0020.14,0006.08,0004.93
2022-09-01 17:40:00,,0828.9,5.00,0.00,29.8,27.8,00.0,38.4,31.6,21.2,0000.0,0019.91,0006.10,0004.94
2022-09-01 17:41:00,,0829.0,5.00,0.00,29.7,26.8,00.0,38.4,31.5,21.6,0000.0,0019.68,0006.08,0004.94
2022-09-01 17:42:00,,0828.7,5.00,0.00,29.7,26.8,00.0,38.3,31.4,22.1,0000.0,0019.24,0006.06,0004.93
2022-09-01 17:43:00,,0828.6,5.00,0.00,29.6,27.1,00.0,38.3,31.4,22.6,0000.0,0018.24,0006.05,0004.93
2022-09-01 17:44:00,,0828.7,5.00,0.00,29.6,27.3,00.0,38.3,31.3,22.8,0000.0,0018.73,0006.11,0004.95
2022-09-01 17:45:00,,0828.6,5.01,0.00,29.6,27.6,00.0,38.3,31.4,23.4,0000.0,0018.27,0006.13,0004.96
2022-09-01 17:46:00,,0828.4,5.00,0.00,29.6,27.9,00.0,38.3,31.4,23.3,0000.0,0017.14,0006.14,0004.97
2022-09-01 17:47:00,,0828.5,5.01,0.00,29.6,28.2,00.0,38.3,31.5,24.1,0000.0,0017.14,0006.22,0005.01
2022-09-01 17:48:00,,0828.5,4.99,0.00,29.7,28.4,00.0,38.3,31.6,24.7,0000.0,0017.33,0006.27,0005.03
2022-09-01 17:49:00,,0828.5,5.00,0.00,29.7,28.3,00.0,38.3,31.6,24.6,0000.0,0017.54,0006.37,0005.06
2022-09-01 17:50:00,,0828.5,5.00,0.00,29.7,27.3,00.0,38.3,31.5,24.0,0000.0,0017.07,0006.45,0005.09
2022-09-01 17:51:00,,0828.5,4.99,0.00,29.6,26.6,00.0,38.3,31.4,23.7,0000.0,0016.59,0006.39,0005.11
2022-09-01 17:52:00,,0828.5,5.00,0.00,29.6,26.9,00.0,38.3,31.4,23.6,0000.0,0016.87,0006.45,0005.12
2022-09-01 17:53:00,,0828.5,5.01,0.00,29.6,27.1,00.0,38.2,31.3,23.6,0000.0,0017.49,0006.49,0005.13
2022-09-01 17:54:00,,0828.5,4.99,0.00,29.6,27.4,00.0,38.2,31.3,22.9,0000.0,0017.47,0006.57,0005.15
2022-09-01 17:55:00,,0828.5,5.01,0.00,29.6,27.7,00.0,38.2,31.4,23.1,0000.0,0016.89,0006.53,0005.15
2022-09-01 17:56:00,,0828.5,5.00,0.00,29.6,28.0,00.0,38.2,31.4,22.0,0000.0,0016.47,0006.53,0005.15
2022-09-01 17:57:00,,0828.4,5.00,0.00,29.6,28.2,00.0,38.3,31.5,20.9,0000.0,0016.17,0006.47,0005.13
2022-09-01 17:58:00,,0828.4,5.01,0.00,29.7,28.4,00.0,38.3,31.6,22.2,0000.0,0016.35,0006.44,0005.11
2022-09-01 17:59:00,,0828.4,4.98,0.00,29.7,28.4,00.0,38.3,31.6,23.2,0000.0,0016.41,0006.47,0005.10
